Wind_Speed
3 8 9 14 13 11 4 5 8 3 4 4 11 19 18 17 18 18 19 19 19 20 19 22 24 27 27 28 29 30 29 28 26 25 23 22 22 20 26 22 28 32 31 33
5 11 13 1 1 6 8 12 14 13 2 4 14 21 18 18 22 20 20 21 20 20 18 19 22 25 29 31 32 30 31 29 29 25 23 21 21 19 23 31 31 32 33 33
14 2 3 6 7 11 13 14 12 13 2 13 13 19 17 16 16 14 20 21 20 21 19 17 18 24 26 29 33 35 34 31 29 27 23 21 14 15 20 30 35 34 34 34
10 8 5 9 12 12 15 12 13 11 7 7 1 10 17 17 18 16 16 17 19 18 15 15 14 22 27 30 30 30 30 32 31 31 27 29 26 21 23 26 38 36 34 35
4 9 12 13 10 10 4 4 3 4 7 9 13 8 9 13 14 15 17 17 15 14 12 11 10 17 20 22 24 26 27 28 28 30 31 30 27 23 17 21 32 34 34 36
7 1 5 4 5 6 11 6 4 1 3 9 13 13 15 15 15 9 7 7 5 5 4 5 8 10 15 17 20 23 26 28 30 31 32 29 27 24 21 21 24 31 34 37
13 11 4 4 6 4 10 7 4 5 6 10 5 5 19 14 14 9 11 12 13 2 5 5 7 9 13 17 18 21 24 26 27 28 29 30 27 25 25 23 25 27 36 36
14 11 16 14 14 9 15 14 7 8 8 12 4 10 9 3 7 9 9 13 13 9 8 8 7 9 12 15 18 19 22 24 27 28 29 27 27 26 27 24 23 33 38 40
10 11 4 4 10 16 8 11 14 10 1 5 10 21 22 15 10 13 17 16 15 12 8 9 9 11 10 12 15 17 17 19 22 24 25 27 27 28 27 25 26 26 38 39
5 10 2 3 3 7 8 3 7 7 6 11 16 20 15 10 13 12 12 9 13 7 7 7 7 7 7 9 11 13 14 16 18 21 23 25 28 28 27 25 26 25 26 32
10 8 3 5 11 14 8 10 8 5 9 7 12 12 13 15 6 5 4 5 9 8 5 3 3 4 6 7 9 11 12 14 16 20 22 25 26 27 27 27 27 29 32 35
12 5 10 12 3 7 17 21 20 9 11 7 10 17 15 4 4 4 7 9 5 5 6 2 1 3 4 7 9 11 11 15 18 19 22 24 25 26 27 27 27 31 35 33
3 4 3 5 9 2 7 16 14 15 8 10 12 13 17 14 10 8 9 9 5 4 6 4 2 4 7 8 9 11 14 16 17 18 21 23 26 28 29 29 28 34 34 32
2 6 10 11 8 4 5 13 19 18 13 22 21 29 31 25 20 19 12 8 9 7 6 8 7 7 11 12 12 14 15 17 20 21 22 25 27 30 29 28 29 35 36 34
3 5 10 20 22 22 21 19 15 21 24 22 26 24 29 29 18 20 18 17 18 20 17 14 10 10 14 14 16 19 19 19 19 20 23 27 24 27 27 28 29 33 37 36
6 4 3 14 19 17 15 17 21 21 20 22 26 29 27 27 22 19 20 19 19 19 18 19 17 9 11 16 18 20 20 21 23 24 27 24 25 27 29 29 32 34 35 34
4 2 4 19 18 14 11 19 23 26 26 25 23 25 24 25 25 22 22 17 17 18 18 19 17 14 13 15 20 21 23 24 27 31 30 29 28 29 30 30 32 34 34 33
7 6 3 5 11 13 10 17 14 19 20 20 23 26 27 28 28 28 24 18 19 18 21 18 15 19 18 13 9 13 16 19 24 27 28 29 29 30 30 31 32 33 33 34
18 14 9 11 17 17 21 16 10 11 18 17 17 18 22 24 23 26 25 16 20 21 18 9 10 12 12 11 10 12 14 14 18 21 22 24 26 28 28 29 29 28 28 29
19 19 13 12 13 16 16 20 21 22 16 4 9 12 16 20 15 16 12 8 9 8 7 7 10 12 12 11 11 13 12 12 15 17 19 19 22 25 25 24 24 23 25 25
5 5 16 16 12 9 15 24 12 12 7 4 6 8 11 10 11 21 17 10 6 6 9 11 11 10 9 10 13 9 7 8 10 11 12 14 16 19 21 21 21 21 20 20
12 7 7 7 10 15 0 5 7 2 6 9 12 12 10 11 14 17 15 9 6 7 8 9 9 10 9 9 7 6 4 4 3 5 8 10 12 14 16 18 18 18 19 20
14 15 13 10 7 1 1 6 5 4 8 12 5 14 9 11 11 11 14 12 6 8 10 9 9 9 7 8 4 2 2 1 5 7 8 10 11 12 15 18 19 18 18 18
16 10 9 13 17 18 18 16 12 11 10 12 9 11 11 13 14 13 10 12 9 6 6 10 9 6 6 5 2 2 3 5 8 10 11 13 14 14 14 14 17 17 17 15
8 8 7 11 16 16 17 9 7 12 10 10 9 9 11 10 15 13 11 6 5 8 9 4 2 4 5 5 6 5 6 10 12 11 10 11 14 15 14 11 12 13 14 17
13 19 13 15 14 14 12 13 10 6 12 13 10 12 7 8 11 8 8 6 5 8 6 0 2 3 3 3 4 6 6 6 13 16 11 11 11 10 13 14 11 7 7 9
Wind_Direction
187 216 215 224 227 270 284 290 266 259 123 285 263 271 269 273 271 265 259 256 257 253 242 232 225 216 211 211 210 210 208 208 204 202 203 209 212 221 217 216 220 218 215 216
191 226 235 185 147 224 245 255 259 272 108 249 281 279 277 271 264 258 260 260 257 256 248 232 217 212 207 209 209 208 209 206 204 202 204 210 216 225 221 222 222 218 218 218
234 199 288 187 203 216 233 245 255 262 317 241 284 275 268 251 248 264 260 261 262 258 253 240 209 210 211 211 209 208 207 204 204 203 201 203 210 214 214 221 224 219 218 219
238 224 167 210 237 227 255 245 253 269 281 272 291 286 287 287 273 254 257 250 253 252 247 249 248 202 210 218 215 210 206 205 205 200 201 200 201 204 220 216 219 220 217 218
193 194 204 219 219 204 244 36 252 269 265 298 239 269 266 252 262 261 261 264 266 268 261 248 230 238 216 219 216 212 209 207 205 204 206 205 211 219 219 208 217 219 217 217
271 0 217 237 74 211 132 117 116 188 277 264 250 225 269 251 267 266 264 271 257 279 285 239 234 221 218 215 206 206 206 209 207 207 209 212 215 214 206 204 204 212 213 214
216 220 165 169 120 137 197 184 231 242 201 254 67 279 247 296 288 268 277 293 294 290 264 217 201 201 206 201 199 201 205 210 208 211 214 217 222 219 214 209 205 207 212 212
214 222 189 191 217 179 197 202 208 233 239 265 106 238 264 256 305 312 269 271 286 272 249 257 238 204 196 196 198 201 205 209 208 210 214 219 222 223 221 215 210 220 219 218
223 238 191 213 217 209 181 221 243 270 319 282 251 265 272 255 229 265 276 284 284 288 265 241 238 228 207 198 198 200 203 211 214 215 215 216 220 220 219 216 215 216 221 222
258 260 170 148 214 252 235 224 199 215 224 235 256 255 259 284 281 271 277 282 298 315 306 253 231 207 198 204 198 200 204 211 212 213 215 221 219 217 219 216 214 210 203 209
233 227 140 169 208 199 190 221 223 245 228 245 252 258 272 276 336 353 356 319 314 315 326 314 244 212 191 195 201 203 201 212 215 212 215 219 221 218 216 216 210 209 210 215
216 273 246 220 186 245 240 226 218 221 222 241 269 268 253 279 304 310 286 300 287 305 320 318 240 232 227 217 210 215 211 217 218 220 218 216 218 217 218 216 211 213 218 220
163 218 245 251 224 211 247 239 247 246 252 251 234 254 268 267 281 291 283 287 331 319 317 310 263 248 239 233 228 227 221 223 220 221 221 218 215 217 215 214 211 217 219 220
83 216 227 239 248 56 198 239 241 238 237 242 242 256 272 265 271 277 261 242 253 261 262 292 290 261 242 231 227 230 234 226 219 216 218 222 216 215 213 212 209 215 218 218
29 237 231 257 273 282 283 279 269 242 242 240 253 248 261 270 275 279 289 293 286 289 299 288 245 242 250 246 231 240 241 234 223 221 223 225 223 219 212 209 207 211 217 219
185 236 329 295 278 280 280 274 266 256 260 259 260 263 257 279 278 277 284 279 282 279 274 275 278 252 247 249 237 236 233 235 228 225 229 227 222 216 213 210 208 214 216 217
289 242 237 264 270 267 249 242 251 248 246 251 254 259 273 269 276 282 285 287 279 278 277 277 279 283 273 246 246 242 240 245 230 226 226 223 217 214 211 210 213 216 216 215
235 261 270 292 308 263 274 256 260 257 257 257 257 260 269 276 281 283 279 286 282 278 275 279 285 289 291 313 289 273 262 246 229 229 229 229 222 216 211 211 212 212 213 215
227 234 256 254 258 275 281 266 243 257 274 273 263 265 269 278 277 279 279 272 269 271 279 313 335 321 311 311 305 288 278 259 237 238 234 231 223 214 208 206 208 209 207 206
225 218 219 232 245 260 263 259 254 266 255 68 13 341 340 309 280 279 342 0 342 341 350 333 315 306 306 316 315 299 281 262 242 243 243 236 226 218 209 209 205 205 209 207
193 214 230 237 249 252 253 264 263 243 257 109 347 322 327 316 319 312 310 310 307 291 309 319 319 312 320 321 319 301 290 268 270 260 240 226 224 218 214 206 199 200 193 195
249 244 230 233 245 256 70 312 249 42 349 310 306 289 289 290 300 305 312 310 319 317 331 334 321 314 319 321 328 321 314 294 257 215 197 198 203 201 196 189 184 185 182 173
245 236 250 249 255 279 292 273 299 201 245 268 247 268 253 279 284 303 308 304 301 310 317 322 315 309 320 332 338 330 290 192 156 152 157 158 168 177 181 172 160 155 164 158
255 263 254 265 255 270 288 302 295 296 257 282 302 291 282 275 282 277 259 271 291 300 305 320 318 320 328 333 358 117 137 136 141 137 142 147 145 144 157 156 157 157 160 159
262 296 252 261 267 270 271 263 332 310 293 287 289 282 274 277 275 278 279 281 290 290 291 261 314 326 336 23 52 72 117 134 128 125 127 133 137 139 144 150 160 162 171 177
250 252 253 259 274 287 285 299 306 256 279 283 291 292 269 240 267 274 273 282 280 264 251 318 82 137 75 40 70 94 108 139 137 127 131 135 123 140 142 137 136 150 163 181
Height
802 803 805 795 793 791 798 800 802 789 802 809 797 789 781 773 771 772 771 770 769 765 767 772 775 780 785 789 792 795 799 803 808 811 815 819 820 823 826 827 829 832 835 838
806 805 790 795 797 804 802 805 802 791 801 814 797 786 776 772 765 764 763 760 758 757 758 761 767 772 775 779 783 788 791 796 800 805 809 813 816 818 820 821 823 826 829 832
799 793 794 802 806 806 802 804 800 799 804 805 804 785 768 754 753 757 755 752 752 748 749 751 757 764 769 772 774 777 782 788 793 798 803 808 811 812 813 813 816 818 822 826
796 789 801 805 805 802 805 790 801 802 812 810 802 792 764 755 752 747 746 746 743 742 744 747 748 753 760 763 768 772 776 780 785 791 795 796 798 801 802 804 807 812 816 820
791 800 803 804 798 798 800 806 806 808 812 811 803 811 765 750 751 748 740 736 734 734 736 739 744 749 754 759 764 768 773 776 781 784 788 789 792 794 797 800 802 806 809 813
792 801 796 793 803 799 807 810 811 813 813 816 790 795 756 749 740 732 733 732 732 733 735 737 742 745 749 754 758 762 766 769 774 777 781 784 786 789 792 794 796 799 803 806
793 796 798 799 806 810 806 807 815 818 822 804 791 792 750 742 737 737 736 733 730 734 737 737 740 744 746 749 752 756 760 763 768 772 776 779 783 785 786 788 790 793 795 798
790 794 792 793 786 795 806 797 804 814 806 791 812 791 749 734 732 737 739 735 733 734 736 737 737 738 741 745 748 751 753 757 760 763 768 774 778 780 781 783 785 786 789 792
779 785 782 785 783 781 799 804 785 802 816 815 783 753 733 731 741 738 735 733 731 730 731 733 734 736 739 742 744 746 750 754 758 761 764 765 770 773 774 777 780 780 783 787
773 786 788 791 791 788 787 783 805 803 814 810 773 764 748 735 732 728 732 732 728 728 730 729 731 733 737 740 742 744 747 750 753 755 759 762 763 766 769 772 774 777 780 782
774 782 795 793 788 780 791 793 790 784 786 787 785 757 723 724 725 731 733 735 733 730 730 729 729 734 735 738 741 742 743 746 749 751 753 756 760 762 763 765 767 770 773 775
775 779 782 778 770 773 768 770 776 787 785 782 785 760 717 724 729 733 735 731 732 732 730 731 732 735 737 737 738 740 740 743 744 747 748 748 753 756 758 760 762 764 766 771
781 794 801 787 778 783 782 771 771 768 782 789 787 761 717 722 726 730 732 730 730 732 732 733 732 733 734 735 737 738 738 739 740 743 744 745 745 749 750 752 756 757 760 765
793 802 787 769 754 759 778 774 769 771 780 768 769 751 728 727 731 725 726 731 729 726 729 728 730 729 729 730 731 732 732 732 733 735 737 738 737 740 742 746 749 750 753 758
802 799 793 780 772 772 771 771 771 769 760 766 750 751 732 719 731 725 722 722 721 720 723 723 724 724 723 723 724 725 725 726 727 729 730 729 733 737 737 739 743 745 748 751
806 799 800 797 782 780 782 777 767 763 760 757 751 741 726 717 722 722 722 721 720 717 718 717 716 716 717 717 717 717 718 719 720 722 723 726 729 731 732 735 737 739 743 746
797 793 797 785 770 770 774 766 760 754 749 748 750 736 727 724 720 720 717 718 715 713 712 710 709 709 710 711 710 709 709 710 710 711 714 717 721 723 725 728 732 736 738 742
800 802 801 786 782 774 746 741 738 742 738 737 739 736 730 725 721 717 712 715 711 710 708 705 705 704 706 706 706 706 707 707 707 707 708 710 714 717 719 722 725 729 732 735
780 789 794 796 779 759 750 741 741 740 732 727 729 727 724 720 718 708 702 708 703 703 702 704 706 706 706 705 704 704 703 704 705 705 707 708 710 712 715 717 721 725 728 732
769 769 779 778 774 760 737 730 729 729 735 735 745 741 739 725 719 706 709 709 708 708 707 706 707 705 705 704 702 700 698 700 701 702 704 705 707 709 713 716 720 724 728 731
770 775 777 773 767 752 737 727 731 744 735 751 750 747 745 740 733 724 719 715 711 711 709 707 706 703 702 701 701 699 698 697 698 698 701 703 706 709 711 715 718 722 726 730
763 763 760 756 757 749 738 730 733 742 745 745 744 738 736 735 732 728 720 717 712 711 708 708 706 706 703 700 698 697 697 697 696 698 699 701 705 708 710 713 718 722 726 729
764 755 752 747 734 730 735 740 738 743 742 736 737 735 733 728 722 723 719 719 712 710 709 706 706 704 702 701 697 695 696 697 697 698 701 701 705 709 711 714 716 721 727 731
749 744 748 750 738 736 735 733 733 733 735 731 731 729 729 725 720 718 715 714 709 708 706 706 706 705 704 703 699 696 696 696 699 701 704 704 705 709 715 716 718 722 726 730
750 748 747 745 738 737 733 731 732 732 732 730 726 725 723 722 715 714 710 709 706 709 709 703 702 705 707 704 702 700 697 697 700 705 710 712 709 709 714 719 722 722 725 727
745 743 745 736 734 734 730 730 731 733 729 726 725 722 719 718 714 712 709 707 708 712 707 702 702 703 705 709 708 704 701 703 701 703 711 715 713 718 716 717 722 726 727 731